COSMOS 1579 COOLANT, 27573

Orbit data source: Space-Track

COSMOS 1579 COOLANT, 27573 is space debris in LEO originally from a launch on Fri, 29 Jun 1984 UTC launched from the Tyuratam Missile And Space Complex (TTMTR). Debris objects in space refer to the collection of defunct objects orbiting the Earth. Examples of debris include non-operational satellites, rocket bodies, and fragments generated from explosions, collisions, or faulty payload assembly.

Loading next visibility...
Identifier
27573, 1984-069X
Orbit
LEO
Country
Flag of CISCIS
Related business
Manufacturer
Unknown
Mission
Spacecraft
Bus & Motor
Unknown
Mass
Unknown
Launch date (UTC)
1984-06-29 (41 years ago)
Launch vehicle
Unknown
Launch site
Tyuratam Missile And Space Complex (TTMTR)
Object type
Payload
Rocket body
Debris
Shape & HBR
Unknown shape, 0.1 m
Radar Cross Section
Small (<0.1 m²)

Expand to show TLE details & history
Last TLE update: 7 months ago

TLE from 7 months ago
0 COSMOS 1579 COOLANT
1 27573U 84069X   25141.33546581  .00000307  00000-0  30319-3 0  9998
2 27573  65.0415 154.7669 0038519 173.1685 206.9667 13.93022860169491
Epoch: 2025-05-21T08:03Z
TLE epoch observation values (Epoch: 2025-05-21T08:03:04.245Z)
Latitude
18.01595°
Longitude
163.43891°
Altitude
944.515 km
Speed
7.369 km/s
True Right ascension
10h 53m 42s
True Declination
17° 55' 03"
Sunlit
Object was in daylight at epoch
Visualization orbit readout
Latitude
Unknown
Longitude
Unknown
Altitude
Unknown
Speed
Unknown
Apparent Right ascension
Unknown
Apparent Declination
Unknown
Sunlit
N/A
Visualization observer readout
Local Sidereal Time
23:22:49
Azimuth
Unknown
Elevation
Unknown
Doppler factor
Unknown
Orbital elements
Apogee altitude
944.754 km
Perigee altitude
888.556 km
Semi-major axis
7,294.792 km
Eccentricity
0.00385
Inclination
65.0415°
RAAN
154.7669°
Arg. of periapsis
173.1685°
True anomaly
206.7674°
Mean anomaly
206.9667°
Eccentric anomaly
206.86696°
Mean motion
3.48356 °/min
Orbital period
103.34 mins
BSTAR
0.00030319
Loading maneuver chart data...
Computing Atmospheric mass density...

Documentation

Showing up to 5 results
|